Terug naar catalogus

ECHOSTAR 11

ActiefCommunicatieGEO
NORAD 33207·PAYLOAD·🇺🇸 United States

Gelanceerd Jul 16, 2008 vanaf Sea Launch Platform

Loading…

TLE

VersSource: Space-Track

Epoch: Sep 14, 2026, 12:29 UTC

1 33207U 08035A   26257.52058617 -.00000066  00000-0  00000-0 0  9990
2 33207   1.2300  82.9890 0002593 109.5713 238.5529  1.00272616 52101

Volg ECHOSTAR 11 in realtime met AllMySat

Download on the App Store